sat.trackr.live / text

‹ back to catalog

STARLINK-30299

NORAD 57650 · 2023-122U

PAYLOAD ACTIVE UNKNOWN

§ Identity

Operator
Country
US
Launch date
2023-08-17
Launch site
AFETR
Launch vehicle
Mass (kg)
RCS (m²)

Purposes: comms

External: N2YO · Heavens-Above · Gunter

§ Orbital elements

Epoch: 2026-05-24T23:14:05.369280Z

Period
94.27 min
Inclination
43.0083°
Eccentricity
0.0000757
Mean motion
15.27597317 rev/d
Perigee alt
482.5 km
Apogee alt
483.5 km
Semi-major
6,861.1 km
B*
1.2396e-4
RAAN
21.6437°
Arg perigee
250.1125°
Mean anomaly
109.9646°
Rev number
15,387

§ Raw data

STARLINK-302991 57650U 23122U   26144.96811770  .00003152  00000+0  12396-3 0  99932 57650  43.0083  21.6437 0000757 250.1125 109.9646 15.27597317153877

JSON: /api/v1/satellites/57650 · /tle

For live sub-satellite position, see the globe view (requires WebGL).

§ Visibility from observer

Set your observer location to see the next 7 days of passes ≥ 10°. The values pass through the URL so the page stays shareable.

No JS? Fill the form by hand. The geolocation button needs JavaScript.